INTELSAT 17 (IS-17)

Last updated on Mon Jul 07 2025 00:02:44 GMT+0000 (Coordinated Universal Time)

1 37238U 10065B 25187.43445087 .00000015 00000+0 00000+0 0 9997 2 37238 0.0379 79.6038 0002738 48.8951 18.5452 1.00272001 49788
UTC large
Height (km)
Speed (km/s)
/
Latitude / Longitude
Inclination (degrees)
Orbital Period (minutes)
Azimuth
Elevation
Range (km)
Doppler Factor

Next 0 passes for location: London (51.5072 / 0.1276)

Sorry there are no passes over London.